User: anonymous   Login
Location: Caribou
(46.8667°N, 68.0167°W)
Time: 05:29:28
(UTC-04:00)
Language:

SL-08 RB Rocket - Orbit

View from above orbital plane
View from above orbital plane
View from above satellite
View from above satellite

Ground track
Ground track

The orbit data is extracted from the following two-line orbital elements,

1 26387U 00033D   17117.80339626 +.00000178 +00000-0 +39068-4 0  9992
2 26387 097.9750 183.3686 0027577 135.2866 339.0398 14.68262286900480
Epoch (UTC): 27 April 2017 19:16:53
Eccentricity: 0.0027577
inclination: 97.9750°
perigee height: 647 km
apogee height: 686 km
right ascension of ascending node: 183.3686°
argument of perigee: 135.2866°
revolutions per day: 14.68262286
mean anomaly at epoch: 339.0398°
orbit number at epoch: 90048

The dashed part of the orbit path shows where the satellite is in the earth's shadow,  

DLR